Weather History for Cumberland, MD

Change the Weather History Date:

Sunday, March 3, 2013

  Actual Average (KMRB) Record (KMRB)
Temperature  
Mean Temperature 30 °F 38 °F  
Max Temperature 33 °F 48 °F 71 °F (1967)
Min Temperature 28 °F 28 °F -1 °F (2014)
Degree Days  
Heating Degree Days 34 27  
Month to date heating degree days 83  
Since 1 July heating degree days 4039  
Cooling Degree Days 0 0  
Month to date cooling degree days 0  
Year to date cooling degree days 0  
Moisture  
Dew Point 19 °F    
Average Humidity 63    
Maximum Humidity 69    
Minimum Humidity 55    
Precipitation  
Precipitation 0.00 in 0.09 in 1.20 in (1942)
Month to date precipitation 0.28  
Year to date precipitation 5.06  
Sea Level Pressure  
Sea Level Pressure 29.93 in    
Wind  
Wind Speed 6 mph (WNW)    
Max Wind Speed 16 mph    
Max Gust Speed 25 mph    
Visibility 10 miles    
Events      
T = Trace of Precipitation, MM = Missing Value Source: NWS Daily Summary

Daily Weather History Graph

Daily Weather History Graph

Search for Another Location

Airport:

Trip Planner

Search our weather history database for the weather conditions in past years. The results will help you decide how hot, cold, wet, or windy it might be!

Date:

Astronomy

Mar. 03, 2013 Rise Set
Actual Time 6:44 AM EST 6:09 PM EST
Civil Twilight 6:17 AM EST 6:36 PM EST
Nautical Twilight 5:46 AM EST 7:07 PM EST
Astronomical Twilight 5:15 AM EST 7:39 PM EST
Moon No Moon Rise 9:59 AM EST (3/3)
Length of Visible Light 12h 18m
Length of Day
11h 24m
Waning Gibbous, 64% of the Moon is Illuminated
Mar 3
Waning Gibbous
Mar 4
Last Quarter
Mar 11
New
Mar 19
First Quarter
Mar 27
Full

Hourly Weather History & Observations

Time (EST) Temp. Windchill Dew Point Humidity Pressure Visibility Wind Dir Wind Speed Gust Speed Precip Events Conditions
12:17 AM 30.2 °F - 21.2 °F 69% 29.92 in 10.0 mi Calm Calm - N/A   Overcast
12:37 AM 30.2 °F - 21.2 °F 69% 29.92 in 10.0 mi Calm Calm - N/A   Overcast
12:57 AM 30.2 °F - 21.2 °F 69% 29.92 in 10.0 mi Calm Calm - N/A   Overcast
1:17 AM 30.2 °F 25.4 °F 21.2 °F 69% 29.92 in 10.0 mi NNE 4.6 mph - N/A   Overcast
1:37 AM 30.2 °F 24.3 °F 21.2 °F 69% 29.92 in 10.0 mi NW 5.8 mph - N/A   Overcast
1:57 AM 30.2 °F - 21.2 °F 69% 29.92 in 10.0 mi Calm Calm - N/A   Overcast
2:17 AM 30.2 °F 25.4 °F 21.2 °F 69% 29.91 in 10.0 mi WNW 4.6 mph - N/A   Overcast
2:37 AM 30.2 °F 22.6 °F 21.2 °F 69% 29.90 in 10.0 mi NW 8.1 mph - N/A   Mostly Cloudy
2:57 AM 30.2 °F 26.7 °F 21.2 °F 69% 29.90 in 10.0 mi West 3.5 mph - N/A   Mostly Cloudy
3:17 AM 30.2 °F 23.4 °F 21.2 °F 69% 29.90 in 10.0 mi West 6.9 mph - N/A   Mostly Cloudy
3:37 AM 30.2 °F - 21.2 °F 69% 29.90 in 10.0 mi Calm Calm - N/A   Mostly Cloudy
3:57 AM 30.2 °F 26.7 °F 21.2 °F 69% 29.90 in 10.0 mi NW 3.5 mph - N/A   Mostly Cloudy
4:17 AM 30.2 °F 23.4 °F 21.2 °F 69% 29.90 in 10.0 mi NW 6.9 mph - N/A   Mostly Cloudy
4:37 AM 30.2 °F 25.4 °F 21.2 °F 69% 29.90 in 10.0 mi NW 4.6 mph - N/A   Mostly Cloudy
4:57 AM 30.2 °F 25.4 °F 21.2 °F 69% 29.90 in 10.0 mi WNW 4.6 mph - N/A   Overcast
5:17 AM 30.2 °F 23.4 °F 21.2 °F 69% 29.91 in 10.0 mi NW 6.9 mph - N/A   Overcast
5:37 AM 30.2 °F 21.9 °F 19.4 °F 64% 29.91 in 10.0 mi NNW 9.2 mph - N/A   Mostly Cloudy
5:57 AM 30.2 °F 21.3 °F 19.4 °F 64% 29.91 in 10.0 mi NW 10.4 mph 20.7 mph N/A   Mostly Cloudy
6:17 AM 30.2 °F 25.4 °F 19.4 °F 64% 29.91 in 10.0 mi NW 4.6 mph - N/A   Mostly Cloudy
6:38 AM 30.2 °F 22.6 °F 19.4 °F 64% 29.91 in 10.0 mi West 8.1 mph 18.4 mph N/A   Mostly Cloudy
6:58 AM 30.2 °F 23.4 °F 19.4 °F 64% 29.91 in 10.0 mi WNW 6.9 mph - N/A   Mostly Cloudy
7:18 AM 30.2 °F 20.8 °F 19.4 °F 64% 29.92 in 10.0 mi WNW 11.5 mph 19.6 mph N/A   Scattered Clouds
7:38 AM 30.2 °F 22.6 °F 19.4 °F 64% 29.92 in 10.0 mi NW 8.1 mph - N/A   Mostly Cloudy
7:58 AM 32.0 °F 24.8 °F 19.4 °F 60% 29.93 in 10.0 mi NW 8.1 mph - N/A   Mostly Cloudy
8:18 AM 30.2 °F 22.6 °F 17.6 °F 60% 29.93 in 10.0 mi NW 8.1 mph - N/A   Mostly Cloudy
8:38 AM 30.2 °F 23.4 °F 19.4 °F 64% 29.93 in 10.0 mi NW 6.9 mph - N/A   Mostly Cloudy
8:58 AM 30.2 °F 20.2 °F 19.4 °F 64% 29.94 in 10.0 mi NNW 12.7 mph 23.0 mph N/A   Scattered Clouds
9:18 AM 30.2 °F 23.4 °F 19.4 °F 64% 29.94 in 10.0 mi West 6.9 mph 19.6 mph N/A   Mostly Cloudy
9:38 AM 30.2 °F 25.4 °F 17.6 °F 60% 29.94 in 10.0 mi West 4.6 mph 17.3 mph N/A   Mostly Cloudy
9:58 AM 32.0 °F 23.0 °F 17.6 °F 55% 29.93 in 10.0 mi WSW 11.5 mph 18.4 mph N/A   Scattered Clouds
10:18 AM 32.0 °F 21.6 °F 17.6 °F 55% 29.93 in 10.0 mi West 15.0 mph 20.7 mph N/A   Scattered Clouds
10:38 AM 32.0 °F 23.0 °F 17.6 °F 55% 29.93 in 10.0 mi West 11.5 mph 17.3 mph N/A   Mostly Cloudy
10:58 AM 32.0 °F 26.4 °F 17.6 °F 55% 29.94 in 10.0 mi WNW 5.8 mph - N/A   Scattered Clouds
11:18 AM 32.0 °F 24.2 °F 17.6 °F 55% 29.94 in 10.0 mi WNW 9.2 mph 18.4 mph N/A   Scattered Clouds
11:38 AM 32.0 °F 22.1 °F 17.6 °F 55% 29.93 in 10.0 mi West 13.8 mph 20.7 mph N/A   Mostly Cloudy
11:58 AM 32.0 °F 21.6 °F 17.6 °F 55% 29.93 in 10.0 mi NNW 15.0 mph 21.9 mph N/A   Scattered Clouds
12:18 PM 32.0 °F 22.5 °F 17.6 °F 55% 29.92 in 10.0 mi WNW 12.7 mph 25.3 mph N/A   Scattered Clouds
12:38 PM 32.0 °F 24.2 °F 17.6 °F 55% 29.92 in 10.0 mi West 9.2 mph - N/A   Scattered Clouds
12:58 PM 32.0 °F 23.0 °F 17.6 °F 55% 29.91 in 10.0 mi West 11.5 mph 18.4 mph N/A   Mostly Cloudy
1:18 PM 32.0 °F 23.0 °F 17.6 °F 55% 29.91 in 10.0 mi West 11.5 mph 21.9 mph N/A   Mostly Cloudy
1:38 PM 32.0 °F 22.5 °F 17.6 °F 55% 29.90 in 10.0 mi WNW 12.7 mph 20.7 mph N/A   Mostly Cloudy
1:58 PM 32.0 °F 24.2 °F 17.6 °F 55% 29.90 in 10.0 mi NW 9.2 mph 21.9 mph N/A   Overcast
2:18 PM 33.8 °F 25.3 °F 19.4 °F 56% 29.89 in 10.0 mi NNW 11.5 mph 18.4 mph N/A   Overcast
2:38 PM 32.0 °F 23.6 °F 17.6 °F 55% 29.90 in 10.0 mi NW 10.4 mph 20.7 mph N/A   Mostly Cloudy
2:59 PM 32.0 °F 26.4 °F 19.4 °F 60% 29.90 in 10.0 mi WNW 5.8 mph - N/A   Overcast
3:19 PM 32.0 °F 23.6 °F 19.4 °F 60% 29.90 in 10.0 mi NW 10.4 mph 18.4 mph N/A   Overcast
3:39 PM 33.8 °F 29.6 °F 19.4 °F 56% 29.90 in 10.0 mi WNW 4.6 mph - N/A   Overcast
3:59 PM 33.8 °F 24.8 °F 19.4 °F 56% 29.91 in 10.0 mi WNW 12.7 mph 17.3 mph N/A   Mostly Cloudy
4:19 PM 33.8 °F 23.5 °F 19.4 °F 56% 29.91 in 10.0 mi NW 16.1 mph 21.9 mph N/A   Scattered Clouds
4:39 PM 32.0 °F 22.5 °F 17.6 °F 55% 29.91 in 10.0 mi WNW 12.7 mph 25.3 mph N/A   Clear
4:59 PM 32.0 °F 24.2 °F 17.6 °F 55% 29.92 in 10.0 mi West 9.2 mph 21.9 mph N/A   Scattered Clouds
5:19 PM 32.0 °F 25.6 °F 19.4 °F 60% 29.92 in 10.0 mi NW 6.9 mph 19.6 mph N/A   Mostly Cloudy
5:39 PM 32.0 °F 24.2 °F 19.4 °F 60% 29.93 in 10.0 mi North 9.2 mph - N/A   Mostly Cloudy
5:59 PM 30.2 °F 21.9 °F 19.4 °F 64% 29.93 in 10.0 mi NNW 9.2 mph 19.6 mph N/A   Scattered Clouds
6:19 PM 30.2 °F 20.2 °F 19.4 °F 64% 29.94 in 10.0 mi NW 12.7 mph 18.4 mph N/A   Scattered Clouds
6:39 PM 30.2 °F 23.4 °F 19.4 °F 64% 29.95 in 10.0 mi WNW 6.9 mph 16.1 mph N/A   Scattered Clouds
6:59 PM 30.2 °F 22.6 °F 19.4 °F 64% 29.96 in 10.0 mi WNW 8.1 mph - N/A   Scattered Clouds
7:19 PM 30.2 °F 25.4 °F 19.4 °F 64% 29.96 in 10.0 mi WNW 4.6 mph - N/A   Mostly Cloudy
7:39 PM 30.2 °F 20.8 °F 19.4 °F 64% 29.96 in 10.0 mi NW 11.5 mph - N/A   Scattered Clouds
7:59 PM 30.2 °F 22.6 °F 19.4 °F 64% 29.97 in 10.0 mi West 8.1 mph - N/A   Scattered Clouds
8:19 PM 30.2 °F 25.4 °F 19.4 °F 64% 29.98 in 10.0 mi NW 4.6 mph - N/A   Clear
8:39 PM 28.4 °F 19.7 °F 19.4 °F 69% 29.98 in 10.0 mi NW 9.2 mph - N/A   Clear
8:59 PM 28.4 °F 22.2 °F 19.4 °F 69% 29.98 in 10.0 mi West 5.8 mph - N/A   Scattered Clouds
9:19 PM 28.4 °F - 19.4 °F 69% 29.98 in 10.0 mi Calm Calm - N/A   Clear
9:39 PM 28.4 °F - 19.4 °F 69% 29.99 in 10.0 mi Calm Calm - N/A   Scattered Clouds
9:59 PM 28.4 °F 21.2 °F 19.4 °F 69% 29.99 in 10.0 mi WSW 6.9 mph - N/A   Mostly Cloudy
10:39 PM 28.4 °F 21.2 °F 17.6 °F 64% 29.99 in 10.0 mi West 6.9 mph - N/A   Clear
10:59 PM 28.4 °F 20.4 °F 17.6 °F 64% 29.99 in 10.0 mi West 8.1 mph 20.7 mph N/A   Scattered Clouds
11:19 PM 28.4 °F 19.1 °F 17.6 °F 64% 30.00 in 10.0 mi West 10.4 mph 20.7 mph N/A   Scattered Clouds
11:39 PM 28.4 °F 19.1 °F 17.6 °F 64% 30.00 in 10.0 mi West 10.4 mph - N/A   Mostly Cloudy